Other Public Products
Issued by NWS Charleston, SC

Current Version | Previous Version | Graphics & Text | Print | Product List | Glossary On
Versions: 1 2 3 4 5 6 7 8 9 10 11 12 13 14 15 16 17 18 19 20 21 22 23 24 25 26 27 28 29 30 31 32 33 34 35 36 37 38 39 40 41 42 43 44 45 46 47 48 49 50
000
FPUS82 KCHS 060427
OPUCHS

TEST...KCHS/KSAV Gateway Observations...TEST
National Weather Service Charleston SC
1100 PM EST MON DEC 05 2016

NOTE: "fair" indicates few or no clouds below 12,000 feet with no
significant weather and/or obstructions to visibility.

SCZ050-WAZ558-NCZ071-TXZ119-213-PAZ071-DCZ001-FLZ074-172-MI076-
NYZ176-178-MAZ016-IL014-TNZ027-NJZ106-GAZ044-MD014-060500-
...Gateway Observations for Charleston International...

CITY           SKY/WX    TMP DP  RH WIND       PRES   REMARKS
Chas Airport   RAIN      57  54  89 NE9       29.95F FOG
Seattle        MOCLDY    36  34  92 SE5       30.00F WCI  32
Charlotte      RAIN      51  47  86 E6        30.06R
Dallas DFW     CLOUDY    51  47  86 S8        29.73R FOG
Dallas Love    DRIZZLE   50  49  96 S6        29.74S FOG
Philladelphia  MOCLDY    41  31  67 NW8       30.12R
Wash National  CLOUDY    46  33  60 NE8       30.14R
Baltimore      CLOUDY    43  32  65 N5        30.12R
Miami          PTCLDY    77  72  84 SE10G18   29.96S
Detroit        PTCLDY    31  28  89 E3        30.07S
Newark         MOCLDY    41  33  73 NW7       30.10R
Laguardia      CLOUDY    46  33  60 NW10      30.09S
J F K          MOCLDY    43  29  57 N7        30.10S
Boston Logan   CLEAR     38  32  79 W10       29.99R WCI  31
Ft. Lauderdale PTCLDY    78  72  81 S9        29.95F
Chicago O`Hare CLOUDY    32  31  96 SE13      29.94F FOG     WCI  22
Chicago Midway CLOUDY    34  30  85 E8        29.96F FOG     WCI  27
Houston Bush   MOCLDY    52  50  93 W6        29.79S
Houston Hobby  CLOUDY    53  51  93 SW7       29.79S
Nashville      CLOUDY    48  45  89 N3        29.80S
Atlanta        CLOUDY    52  52 100 E16       29.87R VSB 1/2

$$

GAZ044-118-TXZ119-213-NCZ071-DCZ001-MDZ014-506-PAZ021-071-NJZ106-
NYZ176-178-MAZ106-OHZ011-021-055-MIZ076-KYZ091-ILZ014-INZ047-
MNZ060-060500-
...Gateway Observations for Savannah International...

CITY           SKY/WX    TMP DP  RH WIND       PRES   REMARKS
Savannah Arpt  HVY RAIN  59  56  89 E10       29.91F FOG
Atlanta        CLOUDY    52  52 100 E16       29.87R VSB 1/2
Charlotte      RAIN      51  47  86 E6        30.06R
Dallas DFW     CLOUDY    51  47  86 S8        29.73R FOG
Houston Bush   MOCLDY    52  50  93 W6        29.79S
Wash National  CLOUDY    46  33  60 NE8       30.14R
Wash Dulles    CLOUDY    40  32  73 CALM      30.12S
Baltimore      CLOUDY    43  32  65 N5        30.12R
Philadelphia   MOCLDY    41  31  67 NW8       30.12R
Newark         MOCLDY    41  33  73 NW7       30.10R
Laguardia      CLOUDY    46  33  60 NW10      30.09S
J F K          MOCLDY    43  29  57 N7        30.10S
Boston         CLEAR     38  32  79 W10       29.99R WCI  31
Pittsburg      CLOUDY    35  28  75 E5        30.07S WCI  31
Akron          CLEAR     31  24  75 E9        30.04F WCI  23
Cleveland      PTCLDY    33  26  75 E8        30.08F WCI  26
Cincinnati     CLOUDY    39  33  79 E9        29.93F WCI  33
Columbus       PTCLDY    32  29  90 E8        30.01S WCI  25
Detroit        PTCLDY    31  28  89 E3        30.07S
Chicago O`Hare CLOUDY    32  31  96 SE13      29.94F FOG     WCI  22
Minneapolis    CLOUDY    40  33  76 S14       29.66S WCI  32
Indianapolis   MOCLDY    36  31  82 E13       29.91F WCI  27

$$




USA.gov is the U.S. government's official web portal to all federal, state and local government web resources and services.